TimePDT,TemperatureF,Dew PointF,Humidity,Sea Level PressureIn,VisibilityMPH,Wind Direction,Wind SpeedMPH,Gust SpeedMPH,PrecipitationIn,Events,Conditions,WindDirDegrees,DateUTC
12:53 AM,62.1,50.0,65,30.00,10.0,Variable,4.6,-,N/A,,Overcast,0,2013-06-18 07:53:00
1:53 AM,61.0,51.1,70,30.00,10.0,South,4.6,-,N/A,,Overcast,180,2013-06-18 08:53:00
2:53 AM,60.1,51.1,72,30.00,10.0,South,6.9,-,N/A,,Overcast,180,2013-06-18 09:53:00
3:53 AM,60.1,51.1,72,29.99,10.0,SSW,3.5,-,N/A,,Overcast,200,2013-06-18 10:53:00
4:53 AM,60.1,50.0,69,29.99,10.0,SW,6.9,-,N/A,,Overcast,220,2013-06-18 11:53:00
5:53 AM,59.0,50.0,72,29.99,10.0,SW,4.6,-,N/A,,Overcast,220,2013-06-18 12:53:00
6:53 AM,59.0,50.0,72,29.99,10.0,SW,8.1,-,N/A,,Mostly Cloudy,220,2013-06-18 13:53:00
7:53 AM,60.1,50.0,69,30.00,10.0,SW,8.1,-,N/A,,Overcast,220,2013-06-18 14:53:00
8:53 AM,63.0,46.9,56,29.99,10.0,SSW,9.2,16.1,N/A,,Clear,210,2013-06-18 15:53:00
9:53 AM,64.9,46.0,50,29.98,10.0,South,4.6,-,N/A,,Mostly Cloudy,190,2013-06-18 16:53:00
10:53 AM,66.9,45.0,45,29.97,10.0,WSW,8.1,-,N/A,,Mostly Cloudy,250,2013-06-18 17:53:00
11:53 AM,66.0,43.0,43,29.96,10.0,WSW,12.7,23.0,N/A,,Mostly Cloudy,240,2013-06-18 18:53:00
12:53 PM,70.0,44.1,39,29.95,10.0,SSW,8.1,-,N/A,,Scattered Clouds,210,2013-06-18 19:53:00
1:53 PM,72.0,42.1,34,29.93,10.0,WSW,12.7,16.1,N/A,,Clear,240,2013-06-18 20:53:00
2:53 PM,72.0,43.0,35,29.92,10.0,West,8.1,-,N/A,,Partly Cloudy,260,2013-06-18 21:53:00
3:53 PM,69.1,43.0,39,29.93,10.0,WSW,10.4,-,N/A,,Overcast,250,2013-06-18 22:53:00
4:53 PM,72.0,45.0,38,29.92,10.0,WSW,12.7,21.9,N/A,,Mostly Cloudy,250,2013-06-18 23:53:00
5:53 PM,69.1,44.1,40,29.92,10.0,West,13.8,19.6,N/A,,Scattered Clouds,260,2013-06-19 00:53:00
6:53 PM,66.0,46.9,50,29.92,10.0,NW,6.9,-,N/A,,Overcast,310,2013-06-19 01:53:00
7:51 PM,60.8,50.0,68,29.93,1.8,West,6.9,-,0.12,Rain,Heavy Rain,280,2013-06-19 02:51:00
7:53 PM,60.1,50.0,69,29.93,1.2,WNW,4.6,-,0.14,Rain,Heavy Rain,290,2013-06-19 02:53:00
8:03 PM,60.8,51.8,72,29.93,10.0,NNW,3.5,-,0.03,Rain,Rain,330,2013-06-19 03:03:00
8:53 PM,57.0,52.0,83,29.95,10.0,SSE,6.9,-,0.08,,Overcast,150,2013-06-19 03:53:00
9:53 PM,55.9,52.0,87,29.97,10.0,SSW,3.5,-,N/A,,Overcast,200,2013-06-19 04:53:00
10:20 PM,55.4,51.8,88,29.97,4.0,ESE,3.5,-,0.13,Rain,Rain,110,2013-06-19 05:20:00
10:42 PM,55.4,51.8,88,29.97,10.0,ESE,4.6,-,0.13,,Overcast,110,2013-06-19 05:42:00
10:53 PM,55.0,52.0,89,29.97,10.0,ESE,3.5,-,0.13,,Overcast,120,2013-06-19 05:53:00
11:53 PM,55.9,52.0,87,29.97,10.0,Calm,Calm,-,N/A,,Overcast,0,2013-06-19 06:53:00